Location: ??????
(56.0120°N, 39.1740°E)
Time: 10:44:34
(UTC+00:00)

USA 267 - Pass Details

Date: 14 April 2026
Orbit: 1101 x 1107 km, 123.0° (Epoch: 10 January)

Event Time Altitude Azimuth Distance (km) Brightness Sun altitude
Rises 23:24:17 0° 64° (ENE) 3,936 7.1 -19.7°
Reaches altitude 10° 23:26:53 10° 70° (ENE) 2,975 6.3 -19.5°
Maximum altitude 23:33:15 51° 145° (SE) 1,366 3.6 -19.0°
Enters shadow 23:36:26 29° 205° (SSW) 1,898 3.9 -18.7°
